Location: Zagreb
(45.8000°N, 16.0000°E)
Time: 01:25:24
(UTC+02:00)

Transit 2A Rocket - Pass Details

Date: 01 February 2022
Orbit: 592 x 909 km, 66.7° (Epoch: 26 May)

Event Time Altitude Azimuth Distance (km) Brightness Sun altitude
Rises 03:08:34 0° 316° (NW) 3,384 - -43.2°
Reaches altitude 10° 03:11:37 10° 302° (WNW) 2,390 - -42.7°
Maximum altitude 03:15:39 22° 254° (WSW) 1,648 - -42.0°
Drops below altitude 10° 03:19:27 10° 205° (SSW) 2,216 - -41.4°
Sets 03:22:10 0° 190° (S) 3,071 - -41.0°
